sat.trackr.live / text

‹ back to catalog

STARLINK-30759

NORAD 58122 · 2023-162E

PAYLOAD ACTIVE UNKNOWN

§ Identity

Operator
Country
US
Launch date
2023-10-22
Launch site
AFETR
Launch vehicle
Mass (kg)
RCS (m²)

Purposes: comms

External: N2YO · Heavens-Above · Gunter

§ Orbital elements

Epoch: 2026-05-25T03:43:48.979200Z

Period
94.27 min
Inclination
43.0068°
Eccentricity
0.0001473
Mean motion
15.27576688 rev/d
Perigee alt
482.0 km
Apogee alt
484.1 km
Semi-major
6,861.2 km
B*
2.3574e-5
RAAN
60.4789°
Arg perigee
268.2699°
Mean anomaly
91.7984°
Rev number
14,401

§ Raw data

STARLINK-307591 58122U 23162E   26145.15542800  .00000386  00000+0  23574-4 0  99962 58122  43.0068  60.4789 0001473 268.2699  91.7984 15.27576688144015

JSON: /api/v1/satellites/58122 · /tle

For live sub-satellite position, see the globe view (requires WebGL).

§ Visibility from observer

Set your observer location to see the next 7 days of passes ≥ 10°. The values pass through the URL so the page stays shareable.

No JS? Fill the form by hand. The geolocation button needs JavaScript.